Погода в Вамене

Индонезия     4°16′13″S   138°44′45″E
темп.,
°C
ветер,
м/с
пор.,
м/с
влажн.,
%
обл.,
%
осадки,
мм/ч
давл.,
гПа
погр.,
м
2 марта, вт
вт200:00+6юз239898 0.1 1012117
03:00+5юз229899 0.2 1011105
06:00+4юз229574 0.0 101254
09:00+11ююз347549 0.0 1013749
12:00+13ююз347175 0.4 1010909
15:00+10ююз348787 1.4 1008498
18:00+7ююз239693 0.9 1011214
21:00+6юз239796 1.1 1013159
3 марта, ср
ср300:00+6юз2397100 0.0 1012119
03:00+6ююз2398100 0.1 1011176
06:00+6ююз1298100 0.3 1012122
09:00+8ююз2395100 0.8 1014266
12:00+9юз2391100 0.4 1011346
15:00+8ююз2298100 3.4 1010191
18:00+7юз2298100 3.4 1011171
21:00+6юз2398100 3.4 1013114
4 марта, чт
чт400:00+6юз2298100 0.3 1013118
03:00+6юз2398100 1.1 1011166
06:00+6зюз2398100 0.1 1013165
09:00+10юз1286100 0.2 1013406
12:00+10ююз129494 1.4 1010290
15:00+10ююз129697 3.4 1008242
18:00+8юз1299100 2.6 1010129
21:00+8с01100100 7.9 1013104
5 марта, пт
пт500:00+8з1199100 0.9 101282
03:00+8юз1299100 1.5 1011116
06:00+7зюз1198100 0.3 101265
09:00+12зсз1287100 0.8 1013399
12:00+10зюз1197100 1.9 1010184
15:00+9з1199100 8.0 1008123
18:00+9ссв01100100 6.3 101094
21:00+8с0098100 7.3 101337
6 марта, сб
сб600:00+6з1199100 0.3 101223
03:00+6з1199100 0.3 101130
06:00+5з119596 0.0 101222
09:00+12з018379 0.3 1013464
12:00+10св0196100 1.6 1009207
15:00+9ююз12100100 9.6 1007155
18:00+9ююв1399100 17.4 1010196
21:00+8юв1299100 37.1 1012165